Time,TemperatureF,DewpointF,PressureIn,WindDirection,WindDirectionDegrees,WindSpeedMPH,WindSpeedGustMPH,Humidity,HourlyPrecipIn,Conditions,Clouds,dailyrainin,SoftwareType,DateUTC
2013-01-25 00:04:00,62.0,59.0,30.03,South,191,9.0,10.0,88,0.00,,,0.00,weatherlink.com 1.10,2013-01-25 06:04:00,
2013-01-25 00:20:00,62.7,59.0,30.02,SE,136,6.0,14.0,87,0.00,,,0.00,weatherlink.com 1.10,2013-01-25 06:20:00,
2013-01-25 00:36:00,62.6,58.0,30.03,SSE,157,3.0,11.0,86,0.00,,,0.00,weatherlink.com 1.10,2013-01-25 06:36:00,
2013-01-25 00:51:00,62.3,58.0,30.02,South,171,9.0,9.0,87,0.00,,,0.00,weatherlink.com 1.10,2013-01-25 06:51:00,
2013-01-25 01:05:00,62.3,58.0,30.02,South,171,4.0,12.0,87,0.00,,,0.00,weatherlink.com 1.10,2013-01-25 07:05:00,
2013-01-25 01:20:00,62.2,58.0,30.02,SSW,196,3.0,11.0,87,0.00,,,0.00,weatherlink.com 1.10,2013-01-25 07:20:00,
2013-01-25 01:36:00,60.8,56.0,30.03,SSW,198,2.0,3.0,84,0.00,,,0.00,weatherlink.com 1.10,2013-01-25 07:36:00,
2013-01-25 01:51:00,58.7,55.0,30.03,South,174,2.0,3.0,88,0.00,,,0.00,weatherlink.com 1.10,2013-01-25 07:51:00,
2013-01-25 02:07:00,58.2,56.0,30.03,South,190,2.0,4.0,91,0.00,,,0.00,weatherlink.com 1.10,2013-01-25 08:07:00,
2013-01-25 02:20:00,57.6,55.0,30.04,South,190,0.0,2.0,90,0.00,,,0.00,weatherlink.com 1.10,2013-01-25 08:20:00,
2013-01-25 02:35:00,56.9,54.0,30.05,WNW,290,1.0,3.0,90,0.00,,,0.00,weatherlink.com 1.10,2013-01-25 08:35:00,
2013-01-25 02:50:00,55.9,52.0,30.05,WNW,282,0.0,4.0,87,0.00,,,0.00,weatherlink.com 1.10,2013-01-25 08:50:00,
2013-01-25 03:05:00,55.3,51.0,30.04,West,280,0.0,2.0,86,0.00,,,0.00,weatherlink.com 1.10,2013-01-25 09:05:00,
2013-01-25 03:20:00,54.6,50.0,30.04,West,280,0.0,3.0,85,0.00,,,0.00,weatherlink.com 1.10,2013-01-25 09:20:00,
2013-01-25 03:36:00,54.1,50.0,30.04,West,280,1.0,2.0,85,0.00,,,0.00,weatherlink.com 1.10,2013-01-25 09:36:00,
2013-01-25 03:51:00,53.8,50.0,30.03,West,280,0.0,2.0,86,0.00,,,0.00,weatherlink.com 1.10,2013-01-25 09:51:00,
2013-01-25 04:08:00,53.5,50.0,30.03,West,279,0.0,3.0,86,0.00,,,0.00,weatherlink.com 1.10,2013-01-25 10:08:00,
2013-01-25 04:22:00,53.2,49.0,30.04,WNW,286,0.0,1.0,86,0.00,,,0.00,weatherlink.com 1.10,2013-01-25 10:22:00,
2013-01-25 04:35:00,53.0,49.0,30.03,WNW,286,0.0,0.0,86,0.00,,,0.00,weatherlink.com 1.10,2013-01-25 10:35:00,
2013-01-25 04:51:00,52.7,49.0,30.04,WNW,286,0.0,3.0,87,0.00,,,0.00,weatherlink.com 1.10,2013-01-25 10:51:00,
2013-01-25 05:05:00,52.5,49.0,30.04,WNW,286,0.0,2.0,87,0.00,,,0.00,weatherlink.com 1.10,2013-01-25 11:05:00,
2013-01-25 05:22:00,52.4,49.0,30.05,WNW,292,1.0,4.0,87,0.00,,,0.00,weatherlink.com 1.10,2013-01-25 11:22:00,
2013-01-25 05:36:00,52.3,49.0,30.05,WNW,292,1.0,3.0,87,0.00,,,0.00,weatherlink.com 1.10,2013-01-25 11:36:00,
2013-01-25 05:52:00,52.4,49.0,30.06,NNW,335,4.0,6.0,89,0.00,,,0.00,weatherlink.com 1.10,2013-01-25 11:52:00,
2013-01-25 06:08:00,52.6,50.0,30.07,NNW,344,3.0,7.0,91,0.00,,,0.00,weatherlink.com 1.10,2013-01-25 12:08:00,
2013-01-25 06:21:00,52.8,51.0,30.08,NNW,333,1.0,6.0,92,0.00,,,0.00,weatherlink.com 1.10,2013-01-25 12:21:00,
2013-01-25 06:37:00,52.9,51.0,30.09,North,10,6.0,10.0,93,0.00,,,0.00,weatherlink.com 1.10,2013-01-25 12:37:00,
2013-01-25 06:52:00,51.6,50.0,30.09,NNE,15,5.0,10.0,93,0.00,,,0.00,weatherlink.com 1.10,2013-01-25 12:52:00,
2013-01-25 07:08:00,50.5,49.0,30.11,NNE,21,7.0,10.0,93,0.00,,,0.00,weatherlink.com 1.10,2013-01-25 13:08:00,
2013-01-25 07:21:00,49.2,47.0,30.12,NNE,33,3.0,9.0,93,0.00,,,0.00,weatherlink.com 1.10,2013-01-25 13:21:00,
2013-01-25 07:37:00,47.4,46.0,30.13,NNE,30,3.0,15.0,93,0.00,,,0.00,weatherlink.com 1.10,2013-01-25 13:37:00,
2013-01-25 07:52:00,46.3,45.0,30.14,NNE,16,5.0,12.0,94,0.00,,,0.00,weatherlink.com 1.10,2013-01-25 13:52:00,
2013-01-25 08:07:00,45.9,44.0,30.14,NE,47,4.0,11.0,94,0.00,,,0.00,weatherlink.com 1.10,2013-01-25 14:07:00,
2013-01-25 08:21:00,45.5,44.0,30.14,NNE,31,5.0,14.0,94,0.00,,,0.00,weatherlink.com 1.10,2013-01-25 14:21:00,
2013-01-25 08:37:00,45.4,44.0,30.15,North,355,10.0,13.0,94,0.00,,,0.00,weatherlink.com 1.10,2013-01-25 14:37:00,
2013-01-25 08:52:00,45.0,43.0,30.16,NNE,32,8.0,14.0,94,0.00,,,0.00,weatherlink.com 1.10,2013-01-25 14:52:00,
2013-01-25 09:07:00,45.1,44.0,30.15,NNE,20,4.0,12.0,94,0.00,,,0.00,weatherlink.com 1.10,2013-01-25 15:07:00,
2013-01-25 09:23:00,45.6,44.0,30.17,NE,44,5.0,7.0,95,0.00,,,0.00,weatherlink.com 1.10,2013-01-25 15:23:00,
2013-01-25 09:38:00,45.9,45.0,30.17,NNE,12,3.0,8.0,95,0.00,,,0.00,weatherlink.com 1.10,2013-01-25 15:38:00,
2013-01-25 09:53:00,46.4,45.0,30.18,NNE,32,3.0,9.0,95,0.00,,,0.00,weatherlink.com 1.10,2013-01-25 15:53:00,
2013-01-25 10:08:00,47.1,46.0,30.19,North,10,6.0,10.0,95,0.00,,,0.00,weatherlink.com 1.10,2013-01-25 16:08:00,
2013-01-25 10:23:00,47.1,46.0,30.20,North,5,4.0,11.0,94,0.00,,,0.00,weatherlink.com 1.10,2013-01-25 16:23:00,
2013-01-25 10:38:00,46.6,44.0,30.20,North,351,4.0,14.0,92,0.00,,,0.00,weatherlink.com 1.10,2013-01-25 16:38:00,
2013-01-25 10:53:00,46.9,45.0,30.20,NNE,19,4.0,11.0,92,0.00,,,0.00,weatherlink.com 1.10,2013-01-25 16:53:00,
2013-01-25 11:08:00,46.1,44.0,30.20,North,5,10.0,12.0,91,0.00,,,0.00,weatherlink.com 1.10,2013-01-25 17:08:00,
2013-01-25 11:23:00,46.0,44.0,30.19,NNE,26,8.0,12.0,91,0.00,,,0.00,weatherlink.com 1.10,2013-01-25 17:23:00,
2013-01-25 11:38:00,46.7,44.0,30.18,NNE,32,3.0,13.0,89,0.00,,,0.00,weatherlink.com 1.10,2013-01-25 17:38:00,
2013-01-25 11:53:00,46.3,43.0,30.18,North,355,11.0,13.0,88,0.00,,,0.00,weatherlink.com 1.10,2013-01-25 17:53:00,
2013-01-25 12:08:00,46.0,43.0,30.18,North,355,3.0,11.0,88,0.00,,,0.00,weatherlink.com 1.10,2013-01-25 18:08:00,
2013-01-25 12:23:00,46.2,43.0,30.18,NE,37,5.0,11.0,87,0.00,,,0.00,weatherlink.com 1.10,2013-01-25 18:23:00,
2013-01-25 12:38:00,46.7,43.0,30.16,NE,38,3.0,11.0,86,0.00,,,0.00,weatherlink.com 1.10,2013-01-25 18:38:00,
2013-01-25 12:53:00,47.1,43.0,30.15,North,11,5.0,13.0,84,0.00,,,0.00,weatherlink.com 1.10,2013-01-25 18:53:00,
2013-01-25 13:08:00,48.2,43.0,30.15,NNE,15,3.0,11.0,83,0.00,,,0.00,weatherlink.com 1.10,2013-01-25 19:08:00,
2013-01-25 13:23:00,48.8,43.0,30.15,NE,34,3.0,9.0,81,0.00,,,0.00,weatherlink.com 1.10,2013-01-25 19:23:00,
2013-01-25 13:38:00,49.2,43.0,30.15,NNE,28,4.0,9.0,80,0.00,,,0.00,weatherlink.com 1.10,2013-01-25 19:38:00,
2013-01-25 13:52:00,49.5,44.0,30.14,WNW,301,7.0,12.0,80,0.00,,,0.00,weatherlink.com 1.10,2013-01-25 19:52:00,
2013-01-25 14:09:00,49.7,43.0,30.14,NNE,22,5.0,10.0,79,0.00,,,0.00,weatherlink.com 1.10,2013-01-25 20:09:00,
2013-01-25 14:22:00,49.6,43.0,30.15,NW,316,7.0,11.0,79,0.00,,,0.00,weatherlink.com 1.10,2013-01-25 20:22:00,
2013-01-25 14:38:00,49.6,44.0,30.14,NNE,15,4.0,11.0,80,0.00,,,0.00,weatherlink.com 1.10,2013-01-25 20:38:00,
2013-01-25 14:53:00,49.9,44.0,30.14,North,360,5.0,11.0,79,0.00,,,0.00,weatherlink.com 1.10,2013-01-25 20:53:00,
2013-01-25 15:08:00,50.4,44.0,30.14,North,5,6.0,7.0,79,0.00,,,0.00,weatherlink.com 1.10,2013-01-25 21:08:00,
2013-01-25 15:23:00,50.8,44.0,30.14,North,360,6.0,9.0,78,0.00,,,0.00,weatherlink.com 1.10,2013-01-25 21:23:00,
2013-01-25 15:39:00,50.5,44.0,30.14,NNE,32,6.0,10.0,77,0.00,,,0.00,weatherlink.com 1.10,2013-01-25 21:39:00,
2013-01-25 15:54:00,50.8,44.0,30.15,NNW,333,3.0,9.0,78,0.00,,,0.00,weatherlink.com 1.10,2013-01-25 21:54:00,
2013-01-25 16:08:00,50.6,44.0,30.15,NNW,338,3.0,8.0,77,0.00,,,0.00,weatherlink.com 1.10,2013-01-25 22:08:00,
2013-01-25 16:40:00,49.6,43.0,30.16,NNW,341,3.0,7.0,79,0.00,,,0.00,weatherlink.com 1.10,2013-01-25 22:40:00,
2013-01-25 16:54:00,49.7,43.0,30.16,NW,319,3.0,8.0,79,0.00,,,0.00,weatherlink.com 1.10,2013-01-25 22:54:00,
2013-01-25 17:09:00,49.7,43.0,30.16,North,355,3.0,8.0,79,0.00,,,0.00,weatherlink.com 1.10,2013-01-25 23:09:00,
2013-01-25 17:24:00,49.8,44.0,30.16,North,360,2.0,7.0,79,0.00,,,0.00,weatherlink.com 1.10,2013-01-25 23:24:00,
2013-01-25 17:39:00,49.9,43.0,30.16,NNE,15,2.0,6.0,78,0.00,,,0.00,weatherlink.com 1.10,2013-01-25 23:39:00,
2013-01-25 17:54:00,50.0,43.0,30.16,North,360,3.0,8.0,78,0.00,,,0.00,weatherlink.com 1.10,2013-01-25 23:54:00,
2013-01-25 18:09:00,50.1,43.0,30.16,NNE,32,5.0,7.0,77,0.00,,,0.00,weatherlink.com 1.10,2013-01-26 00:09:00,
2013-01-25 18:24:00,50.1,42.0,30.16,NNE,26,5.0,12.0,74,0.00,,,0.00,weatherlink.com 1.10,2013-01-26 00:24:00,
2013-01-25 18:39:00,49.9,42.0,30.17,ENE,57,3.0,10.0,74,0.00,,,0.00,weatherlink.com 1.10,2013-01-26 00:39:00,
2013-01-25 18:54:00,49.6,42.0,30.17,North,5,5.0,8.0,75,0.00,,,0.00,weatherlink.com 1.10,2013-01-26 00:54:00,
2013-01-25 19:09:00,49.2,42.0,30.17,NNE,26,5.0,9.0,75,0.00,,,0.00,weatherlink.com 1.10,2013-01-26 01:09:00,
2013-01-25 19:25:00,48.7,41.0,30.16,NNE,28,6.0,10.0,75,0.00,,,0.00,weatherlink.com 1.10,2013-01-26 01:25:00,
2013-01-25 19:39:00,48.6,41.0,30.16,NNE,23,4.0,10.0,75,0.00,,,0.00,weatherlink.com 1.10,2013-01-26 01:39:00,
2013-01-25 19:55:00,48.4,41.0,30.16,ENE,66,3.0,12.0,76,0.00,,,0.00,weatherlink.com 1.10,2013-01-26 01:55:00,
2013-01-25 20:10:00,48.3,41.0,30.17,North,11,3.0,10.0,75,0.00,,,0.00,weatherlink.com 1.10,2013-01-26 02:10:00,
2013-01-25 20:24:00,48.0,40.0,30.17,North,10,7.0,9.0,75,0.00,,,0.00,weatherlink.com 1.10,2013-01-26 02:24:00,
2013-01-25 20:41:00,47.8,40.0,30.17,NE,39,2.0,9.0,75,0.00,,,0.00,weatherlink.com 1.10,2013-01-26 02:41:00,
2013-01-25 20:55:00,47.6,40.0,30.17,NE,36,2.0,10.0,75,0.00,,,0.00,weatherlink.com 1.10,2013-01-26 02:55:00,
2013-01-25 21:10:00,47.4,40.0,30.17,ENE,59,7.0,10.0,75,0.00,,,0.00,weatherlink.com 1.10,2013-01-26 03:10:00,
2013-01-25 21:24:00,47.3,40.0,30.17,North,9,5.0,9.0,75,0.00,,,0.00,weatherlink.com 1.10,2013-01-26 03:24:00,
2013-01-25 21:41:00,47.1,40.0,30.18,NNW,337,7.0,10.0,75,0.00,,,0.00,weatherlink.com 1.10,2013-01-26 03:41:00,
2013-01-25 21:55:00,47.1,40.0,30.18,NNE,13,4.0,9.0,75,0.00,,,0.00,weatherlink.com 1.10,2013-01-26 03:55:00,
2013-01-25 22:09:00,47.0,39.0,30.18,NNE,30,2.0,8.0,75,0.00,,,0.00,weatherlink.com 1.10,2013-01-26 04:09:00,
2013-01-25 22:25:00,47.0,40.0,30.18,NNE,13,3.0,8.0,76,0.00,,,0.00,weatherlink.com 1.10,2013-01-26 04:25:00,
2013-01-25 22:39:00,47.1,40.0,30.19,NE,42,1.0,6.0,76,0.00,,,0.00,weatherlink.com 1.10,2013-01-26 04:39:00,
2013-01-25 22:56:00,47.0,40.0,30.19,NE,53,3.0,7.0,76,0.00,,,0.00,weatherlink.com 1.10,2013-01-26 04:56:00,
2013-01-25 23:10:00,46.8,40.0,30.18,NNE,18,6.0,7.0,76,0.00,,,0.00,weatherlink.com 1.10,2013-01-26 05:10:00,
2013-01-25 23:25:00,46.7,40.0,30.19,North,360,2.0,6.0,77,0.00,,,0.00,weatherlink.com 1.10,2013-01-26 05:25:00,
2013-01-25 23:42:00,46.7,40.0,30.20,NE,44,2.0,7.0,77,0.00,,,0.00,weatherlink.com 1.10,2013-01-26 05:42:00,
2013-01-25 23:55:00,46.7,40.0,30.20,North,5,2.0,4.0,78,0.00,,,0.00,weatherlink.com 1.10,2013-01-26 05:55:00,